Home > Weather > Bergisch Gladbach > Past weeks

Flag for Germany Weather for the Past 2 Weeks in Bergisch Gladbach, North Rhine-Westphalia, Germany

Now
37 °F

Partly sunny.


Feels Like: 29 °F
Forecast: 36 / 41 °F
Wind: 13 mph from Southeast

Location: Koeln / Bonn

Current Time: Feb 13, 2016 at 12:54:39 PM

Latest Report: Feb 13, 2016 at 12:20 PM


Visibility: N/A

Pressure: 29.24 "Hg

Humidity: 81%

Dew point: 32 °F

Location of Bergisch GladbachLocation

Historic Weather in Bergisch Gladbach — Graph

°F

Bergisch Gladbach Temperature Yesterday

Maximum temperature yesterday: 41 °F (at 11:50 AM)
Minimum temperature yesterday: 32 °F (at 8:20 PM)
Average temperature yesterday: 37 °F

High & Low Weather Summary for the Past Weeks

 TemperatureHumidityPressure
High54 °F (Feb 1, 12:20 AM)100% (Jan 30, 6:20 PM)30.30 "Hg (Jan 30, 6:20 PM)
Low27 °F (Feb 13, 4:20 AM)50% (Feb 8, 3:50 PM)28.88 "Hg (Feb 9, 3:20 PM)
Average44 °F82%29.79 "Hg
* Reported Jan 29 11:20 AM — Feb 13 11:20 AM, Bergisch Gladbach, Weather by CustomWeather, © 2016

Note: Actual official high and low records may vary slightly from our data, if they occured in-between our weather recording intervals... More about our weather records

Advertising

Bergisch Gladbach Weather History for the Previous 24 Hours

 ConditionsComfort  
Time TempWeatherWind HumidityBarometerVisibility
11:20 AM
Sat, Feb 13
37 °FPartly sunny.9 mph81%29.27 "HgN/A
10:50 AM36 °FPartly sunny.8 mph81%29.27 "HgN/A
10:20 AM34 °FPartly sunny.7 mph87%29.30 "HgN/A
9:50 AM32 °FPartly sunny.6 mph93%29.30 "HgN/A
9:20 AM32 °FSunny.6 mph93%29.33 "Hg10 mi
8:50 AM32 °FSunny.7 mph93%29.33 "Hg10 mi
8:20 AM30 °FSunny.6 mph93%29.33 "Hg10 mi
7:50 AM28 °FSunny.5 mph100%29.33 "Hg10 mi
7:20 AM28 °FClear.5 mph100%29.33 "Hg10 mi
6:50 AM27 °FClear.5 mph100%29.36 "Hg10 mi
6:20 AM27 °FClear.3 mph100%29.36 "Hg10 mi
5:50 AM27 °FClear.2 mph100%29.36 "Hg10 mi
5:20 AM27 °FClear.2 mph100%29.36 "Hg10 mi
4:20 AM27 °FClear.1 mph100%29.36 "Hg10 mi
3:20 AM28 °FFog.2 mph100%29.39 "HgN/A
2:20 AM30 °FClear.1 mph100%29.39 "Hg10 mi
1:50 AM28 °FClear.1 mph100%29.39 "Hg10 mi
1:20 AM30 °FClear.1 mph93%29.39 "Hg10 mi
12:50 AM28 °FClear.2 mph93%29.39 "Hg10 mi
12:20 AM32 °FClear.1 mph87%29.39 "Hg10 mi
11:50 PM
Fri, Feb 12
34 °FClear.3 mph87%29.39 "Hg10 mi
11:20 PM34 °FClear.7 mph87%29.39 "Hg10 mi
10:50 PM36 °FClear.8 mph81%29.39 "Hg10 mi
10:20 PM34 °FClear.8 mph87%29.39 "Hg10 mi
9:50 PM34 °FClear.7 mph87%29.42 "Hg10 mi
9:20 PM34 °FClear.6 mph87%29.42 "Hg10 mi
8:50 PM34 °FClear.7 mph87%29.42 "Hg10 mi
8:20 PM32 °FClear.3 mph87%29.42 "Hg10 mi
7:50 PM34 °FClear.6 mph81%29.42 "Hg10 mi
7:20 PM36 °FClear.6 mph81%29.42 "Hg10 mi
6:50 PM34 °FClear.2 mph87%29.42 "Hg10 mi
6:20 PM36 °FPassing clouds.3 mph81%29.42 "HgN/A
5:50 PM37 °FPassing clouds.5 mph70%29.42 "HgN/A
5:20 PM39 °FPartly sunny.6 mph65%29.42 "HgN/A
4:50 PM39 °FPartly sunny.9 mph65%29.42 "HgN/A
4:20 PM41 °FPartly sunny.9 mph61%29.45 "HgN/A
3:50 PM41 °FPartly sunny.10 mph66%29.45 "HgN/A
3:20 PM41 °FBroken clouds.12 mph66%29.45 "HgN/A
2:50 PM41 °FBroken clouds.10 mph66%29.45 "HgN/A
2:20 PM41 °FPartly sunny.9 mph70%29.47 "HgN/A
1:50 PM41 °FPartly sunny.12 mph66%29.50 "HgN/A
1:20 PM41 °FPartly sunny.12 mph66%29.50 "HgN/A
12:50 PM39 °FPartly sunny.13 mph70%29.53 "HgN/A
12:20 PM39 °FPartly sunny.12 mph70%29.53 "HgN/A
Weather by CustomWeather, © 2016

See weather overviewHow to use our weather pages